SCP
0 0 0 0 0 0 0 0 0 -0 0 0 0 0 0 0 0 0 0 0 0 0 0 0 -0 -0 0 0 0 0 0 0 0 0 0 0 0 0 0 0 0 -0 -0
0 0 0 0 0 0 0 0 0 0 0 0 0 0 0 -0 -0 -0 0 0 0 0 0 0 0 0 0 0 0 0 0 0 0 0 0 0 0 0 0 0 0 0 -0
0 0 0 0 0 0 0 0 0 0 0 0 0 0 0 -0 -0 0 0 0 0 0 0 0 0 0 0 0 0 0 0 0 0 0 0 0 0 0 0 0 0 0 0
0 0 0 0 0 0 0 0 0 0 0 0 0 0 0 -0 0 0 0 0 0 -0 0 0 0 0 0 0 0 0 0 0 0 0 0 0 0 0 0 0 0 0 0
0 0 0 0 0 0 0 0 0 0 0 0 0 0 0 0 0 0 0 0 0 -0 -0 0 -0 -0 -0 -0 0 0 0 0 0 0 0 0 0 0 0 0 0 0 0
0 0 0 0 0 0 0 0 0 0 0 0 0 0 0 0 0 0 0 0 0 0 0 0 0 -0 -0 -0 -0 0 0 0 0 0 0 0 0 0 0 0 0 0 0
0 0 0 0 0 0 0 0 0 0 0 0 0 0 0 0 0 0 0 0 0 0 0 0 0 -0 0 0 0 -0 0 0 0 0 0 0 0 0 0 0 0 0 0
0 0 0 0 0 -0 0 0 0 0 0 0 0 0 0 0 0 0 0 0 0 0 0 0 0 0 0 0 0 0 0 0 0 0 0 0 0 0 0 0 0 0 0
0 1 1 0 0 -0 -0 0 0 0 0 0 0 0 0 0 0 0 0 0 0 0 0 0 0 0 0 0 0 0 0 0 0 0 0 0 0 0 0 0 0 0 0
0 0 0 0 0 0 -0 0 0 0 0 0 0 0 0 0 0 0 0 0 0 0 0 0 0 0 0 0 0 0 0 0 0 0 0 0 0 0 0 0 0 0 0
1 1 1 0 0 0 0 0 0 0 0 0 0 0 0 0 0 0 0 0 0 0 0 0 0 0 0 0 0 0 0 0 0 0 0 0 0 0 0 0 0 0 0
1 1 1 1 0 0 0 0 0 0 0 -0 0 0 0 0 0 0 0 0 0 0 0 0 0 0 0 0 0 0 0 0 0 0 0 0 0 0 0 0 0 0 0
1 0 0 1 1 0 0 0 0 0 1 0 0 0 -0 0 0 0 0 0 0 0 0 0 0 0 0 0 0 0 0 0 0 0 0 0 0 0 0 0 0 0 0
0 0 0 0 1 1 1 0 1 1 1 1 1 0 0 0 0 1 1 1 1 1 0 0 0 0 0 0 0 0 0 0 0 0 0 0 0 0 0 0 0 0 0
0 0 0 0 0 0 1 1 1 1 1 1 1 1 1 1 1 1 1 1 2 1 1 1 0 1 0 0 0 0 0 0 0 0 0 0 0 0 0 0 0 0 0
0 0 0 0 0 0 1 1 1 1 1 2 1 1 1 1 1 1 1 1 1 1 1 1 0 0 0 0 0 0 0 0 0 0 0 0 0 0 0 0 0 0 0
0 0 0 0 0 0 0 1 1 1 1 1 1 1 1 1 1 0 0 1 1 0 1 1 0 0 0 0 0 0 0 0 0 0 0 0 0 0 0 0 0 0 0
0 0 0 0 0 0 0 0 0 1 1 1 1 1 0 2 1 1 1 1 1 1 0 0 0 1 0 0 0 0 0 0 0 0 0 0 0 0 0 0 0 0 0
0 0 0 0 0 0 0 0 0 0 0 1 1 1 1 1 1 2 1 1 1 1 1 1 0 0 0 0 0 0 0 0 0 0 0 0 0 0 0 0 0 0 0
0 0 0 0 0 0 0 0 0 0 0 0 0 1 1 1 2 2 1 1 2 1 1 1 0 0 0 1 0 0 0 0 0 0 0 0 0 0 0 0 0 0 0
0 0 0 0 0 0 0 0 0 0 0 0 0 0 0 0 0 0 1 1 0 1 1 1 0 0 0 1 0 0 0 0 0 0 0 0 0 0 0 0 0 0 0
0 0 0 0 0 0 0 0 0 0 0 0 0 0 0 0 0 0 0 0 0 1 1 1 1 1 0 1 0 0 0 0 0 0 0 0 0 0 0 0 0 0 0
0 0 0 0 0 0 0 0 0 0 0 0 0 0 0 0 0 0 0 0 0 0 0 0 1 1 1 0 0 0 0 0 0 0 0 0 0 0 0 0 0 0 0
0 0 0 0 0 0 0 0 0 0 0 0 0 0 0 0 0 0 0 0 0 0 0 0 0 1 1 1 1 1 1 1 0 0 0 0 0 0 0 0 0 0 0
0 0 0 0 0 0 0 0 0 0 0 0 0 0 0 0 0 0 0 0 0 0 0 0 0 0 0 0 0 0 0 0 0 1 0 0 0 0 0 0 0 0 0
0 0 0 0 0 0 0 0 0 0 0 0 0 0 0 0 0 0 0 0 0 0 0 0 0 0 0 0 0 0 0 0 0 0 1 0 0 0 0 0 0 0 0
Wind_Speed_500mb
22 23 25 24 21 18 14 11 8 5 4 6 7 6 8 9 5 3 4 8 14 9 14 14 13 4 6 11 13 14 15 14 14 13 14 15 15 15 15 14 14 14 14
27 25 27 28 24 22 21 19 16 15 13 15 16 12 9 5 6 6 5 9 11 7 14 12 13 12 2 5 9 10 6 4 5 8 11 12 15 14 12 10 10 11 12
30 29 29 32 30 29 25 22 20 21 21 17 18 14 8 4 4 4 5 6 11 7 12 12 14 15 7 3 2 4 4 3 6 9 12 15 16 16 13 11 10 12 14
32 34 34 33 36 36 32 27 22 19 21 17 17 16 9 7 8 8 7 8 6 6 8 8 11 11 9 7 7 6 4 4 6 10 14 16 19 18 15 14 12 13 18
33 32 31 29 34 38 35 31 26 22 19 21 16 18 18 15 13 16 14 11 8 4 6 6 6 8 9 7 7 5 3 5 8 11 15 18 21 21 17 15 15 16 20
34 31 28 29 30 38 37 33 28 24 27 24 21 21 20 18 16 18 20 18 15 10 7 6 3 2 2 5 4 4 4 6 10 13 14 16 21 24 20 18 18 20 24
34 31 28 32 42 42 39 37 31 30 29 29 26 25 23 22 24 24 24 21 20 16 15 11 7 4 4 3 2 3 4 7 10 13 17 17 21 25 24 19 20 21 27
37 40 43 48 43 53 50 39 34 35 33 31 28 24 14 16 18 8 3 10 20 22 20 19 17 13 12 11 10 8 8 9 12 14 16 16 21 28 27 22 20 23 30
34 43 52 68 56 56 48 47 40 38 30 31 31 25 10 8 10 15 17 9 2 11 18 24 24 22 19 19 19 16 15 15 14 16 18 19 23 30 29 23 21 26 32
29 37 37 35 64 62 59 48 48 47 36 32 34 37 36 37 22 17 12 17 30 21 11 18 24 28 27 26 26 24 20 21 20 19 20 21 24 29 30 23 22 27 31
26 29 30 26 26 11 71 68 45 48 31 27 31 34 34 40 43 38 34 25 27 25 27 22 21 27 32 29 28 27 25 25 25 22 23 22 23 27 30 23 21 26 28
25 20 19 18 18 15 23 30 58 56 50 53 46 49 52 36 31 32 33 33 35 31 38 34 28 22 22 24 25 26 29 32 28 25 25 23 24 26 28 23 20 24 24
6 9 10 16 16 11 11 12 29 47 57 54 53 52 62 54 48 45 38 38 36 33 44 45 38 34 33 29 26 26 26 35 31 28 25 23 24 25 26 21 20 20 17
5 6 9 11 13 13 12 25 24 22 26 32 43 53 54 53 53 56 48 40 43 33 44 45 41 39 40 38 35 30 30 31 36 32 26 24 24 23 24 18 17 16 13
13 11 11 10 10 12 19 27 31 31 29 32 36 39 42 38 43 51 54 53 40 43 46 35 30 33 45 46 40 35 31 30 37 35 30 27 25 23 22 17 14 13 8
19 20 21 20 18 15 14 16 20 26 35 38 39 39 45 48 49 44 40 44 49 49 44 34 37 50 50 46 52 43 37 30 36 38 35 30 27 24 23 20 14 12 11
21 21 23 24 24 23 19 16 16 17 23 32 36 36 38 41 47 43 41 42 44 45 42 39 39 56 57 55 57 52 45 37 39 42 41 35 30 26 24 25 17 12 12
23 21 22 24 25 25 22 17 13 16 23 24 33 34 35 34 36 37 41 43 38 35 36 43 44 52 47 40 43 56 54 45 41 42 45 40 35 30 27 29 26 18 14
27 25 21 24 26 26 26 25 22 19 18 22 28 30 24 27 29 29 31 32 34 35 37 38 44 40 47 46 42 44 50 46 44 44 46 45 41 36 34 32 32 23 16
24 25 21 22 25 26 28 27 27 24 21 22 23 27 28 31 29 29 32 32 35 37 31 37 33 38 38 33 47 46 44 46 45 47 51 52 50 42 38 40 38 32 23
25 25 23 21 21 25 27 27 28 26 24 21 20 20 24 32 42 40 42 41 39 40 39 33 32 32 40 32 34 30 37 32 46 48 54 59 57 53 49 50 49 42 32
25 26 28 26 25 21 25 24 25 26 26 24 21 17 15 13 13 20 27 31 33 36 38 38 32 33 37 32 30 32 28 31 29 49 53 57 62 61 53 54 52 46 40
33 31 29 34 36 33 29 29 30 29 31 32 31 27 25 23 20 17 15 16 19 23 32 36 39 36 35 37 38 41 40 33 34 29 41 53 55 64 61 59 56 55 49
35 36 35 33 31 32 40 40 41 38 38 37 37 36 36 34 33 29 30 31 32 30 29 29 32 30 31 29 32 35 43 46 44 41 51 44 42 59 55 64 62 61 58
36 36 35 35 33 32 28 30 40 47 48 47 46 43 42 42 40 37 39 39 36 33 40 42 42 41 39 42 44 46 47 47 59 58 51 61 50 54 49 61 67 66 69
39 37 37 37 36 38 35 35 36 36 40 44 49 54 53 47 46 44 45 45 44 40 41 44 43 43 47 48 52 53 52 53 58 58 60 68 54 51 49 69 70 73 76
Wind_Direction_500mb
217 212 207 203 199 198 205 216 221 235 297 316 328 308 343 18 35 10 337 358 357 12 15 23 39 37 234 234 244 253 274 277 286 299 312 318 322 324 321 313 308 304 306
225 224 221 219 218 220 220 229 243 250 260 283 295 304 295 351 49 63 29 357 7 20 12 24 35 27 356 244 244 253 264 277 314 331 342 344 343 344 341 335 331 322 321
233 235 232 228 229 234 239 242 248 257 258 272 293 295 268 282 329 341 352 339 347 349 7 23 22 19 32 54 119 126 103 26 10 13 10 3 360 355 348 336 334 326 327
241 243 240 235 233 239 241 245 254 266 261 256 284 280 258 274 284 289 294 318 327 325 345 15 34 39 55 84 100 100 87 47 17 12 9 8 7 358 343 336 332 325 324
239 243 241 234 230 234 240 241 250 258 258 246 269 276 271 272 289 283 281 271 283 307 319 344 36 60 64 76 91 91 67 1 356 345 354 357 360 354 341 332 328 327 324
236 237 243 251 241 233 238 244 245 246 252 246 253 273 278 284 292 289 280 263 267 276 278 293 316 35 55 62 82 75 31 349 338 334 340 348 352 349 340 330 328 328 328
230 231 248 265 261 249 242 244 244 244 253 246 257 270 274 287 295 290 276 264 265 278 280 274 264 241 261 283 320 337 340 354 338 338 337 337 343 344 338 331 330 330 326
241 244 243 253 257 263 256 250 255 254 249 254 254 263 275 291 290 340 318 328 263 261 273 269 262 256 252 262 270 275 289 308 328 334 338 335 340 341 337 329 327 326 326
244 259 261 252 244 289 275 261 251 252 249 253 258 253 275 274 282 295 284 307 53 296 273 269 263 258 262 266 267 271 273 278 295 315 325 329 331 339 334 327 326 327 327
256 260 274 270 232 271 285 279 257 242 246 245 247 254 264 268 273 285 285 266 288 293 266 283 263 256 260 266 266 269 270 271 278 292 305 316 321 329 328 323 324 329 331
253 252 261 254 258 191 225 266 269 246 244 248 250 252 259 265 262 259 277 281 289 274 276 276 278 263 258 266 269 267 263 264 266 273 287 300 309 322 323 318 323 330 334
250 248 249 245 241 236 224 236 213 220 229 250 240 251 262 248 258 248 262 274 275 271 278 273 270 272 261 263 269 269 262 253 256 260 272 287 300 313 317 310 318 327 333
231 280 297 270 268 249 259 250 224 233 241 240 251 257 257 251 249 256 256 264 263 278 283 280 268 263 266 272 274 279 275 246 246 250 260 276 289 304 304 300 313 326 327
33 335 310 301 304 287 265 253 238 233 247 254 253 254 258 252 251 256 256 257 261 268 284 275 280 257 260 270 274 274 274 259 238 244 249 262 276 291 290 286 302 321 327
17 353 334 317 319 318 292 278 265 253 251 252 254 260 263 264 259 258 254 252 252 262 266 276 269 267 256 264 268 272 270 267 242 241 244 253 266 279 277 267 290 306 302
345 342 338 336 337 327 321 309 275 260 250 249 258 256 256 258 260 258 256 259 259 257 259 266 271 288 283 270 262 262 265 257 245 241 242 246 258 272 265 250 261 285 289
327 328 329 331 332 330 324 314 303 284 273 264 258 258 261 257 256 259 251 253 255 251 255 271 277 294 290 277 254 258 261 252 250 244 240 241 248 262 252 243 242 256 259
325 323 320 322 325 331 336 327 305 287 274 278 274 269 257 248 255 262 259 250 255 257 256 281 283 283 282 277 256 251 253 250 250 248 239 234 240 252 241 245 238 235 238
320 310 312 307 309 316 322 330 331 314 303 283 274 280 269 250 248 251 255 254 251 254 262 268 282 283 282 270 262 255 243 250 251 251 235 229 236 244 244 240 243 237 240
312 313 308 298 293 303 313 322 326 325 318 308 296 281 275 268 261 254 247 248 253 255 257 266 270 278 279 275 267 259 250 245 252 252 233 228 235 240 242 238 234 232 233
311 303 302 292 290 290 295 304 315 321 322 315 306 303 287 270 260 259 255 253 253 255 257 261 265 270 277 269 273 264 255 241 246 248 234 231 235 237 239 234 231 228 227
318 293 293 296 286 285 285 286 290 300 304 306 310 305 303 313 287 257 258 256 247 251 259 255 262 263 265 267 271 269 263 245 240 246 235 236 239 242 244 239 237 227 228
329 331 324 295 283 281 283 283 280 281 286 291 293 301 304 299 295 291 282 275 268 266 255 258 266 267 273 277 275 269 265 258 252 248 248 235 238 243 247 246 235 227 226
320 319 320 315 312 292 277 278 280 279 277 279 286 290 291 292 292 294 288 281 276 274 273 274 266 263 255 264 274 264 260 265 261 247 249 241 241 251 247 251 239 229 225
308 311 312 313 309 304 302 294 283 280 278 276 278 280 281 282 283 279 278 279 281 282 280 275 272 271 271 269 273 270 264 262 267 257 251 249 243 246 247 251 248 232 229
299 304 305 303 303 306 307 306 303 304 297 289 280 277 275 273 276 275 277 276 276 277 280 279 279 276 273 268 264 267 269 265 258 269 250 257 247 241 241 249 248 240 230
Wind_Speed_850mb
22 23 25 24 21 18 14 11 8 5 4 6 7 6 8 9 5 3 4 8 14 9 14 14 13 4 6 11 13 14 15 14 14 13 14 15 15 15 15 14 14 14 14
27 25 27 28 24 22 21 19 16 15 13 15 16 12 9 5 6 6 5 9 11 7 14 12 13 12 2 5 9 10 6 4 5 8 11 12 15 14 12 10 10 11 12
30 29 29 32 30 29 25 22 20 21 21 17 18 14 8 4 4 4 5 6 11 7 12 12 14 15 7 3 2 4 4 3 6 9 12 15 16 16 13 11 10 12 14
32 34 34 33 36 36 32 27 22 19 21 17 17 16 9 7 8 8 7 8 6 6 8 8 11 11 9 7 7 6 4 4 6 10 14 16 19 18 15 14 12 13 18
33 32 31 29 34 38 35 31 26 22 19 21 16 18 18 15 13 16 14 11 8 4 6 6 6 8 9 7 7 5 3 5 8 11 15 18 21 21 17 15 15 16 20
34 31 28 29 30 38 37 33 28 24 27 24 21 21 20 18 16 18 20 18 15 10 7 6 3 2 2 5 4 4 4 6 10 13 14 16 21 24 20 18 18 20 24
34 31 28 32 42 42 39 37 31 30 29 29 26 25 23 22 24 24 24 21 20 16 15 11 7 4 4 3 2 3 4 7 10 13 17 17 21 25 24 19 20 21 27
37 40 43 48 43 53 50 39 34 35 33 31 28 24 14 16 18 8 3 10 20 22 20 19 17 13 12 11 10 8 8 9 12 14 16 16 21 28 27 22 20 23 30
34 43 52 68 56 56 48 47 40 38 30 31 31 25 10 8 10 15 17 9 2 11 18 24 24 22 19 19 19 16 15 15 14 16 18 19 23 30 29 23 21 26 32
29 37 37 35 64 62 59 48 48 47 36 32 34 37 36 37 22 17 12 17 30 21 11 18 24 28 27 26 26 24 20 21 20 19 20 21 24 29 30 23 22 27 31
26 29 30 26 26 11 71 68 45 48 31 27 31 34 34 40 43 38 34 25 27 25 27 22 21 27 32 29 28 27 25 25 25 22 23 22 23 27 30 23 21 26 28
25 20 19 18 18 15 23 30 58 56 50 53 46 49 52 36 31 32 33 33 35 31 38 34 28 22 22 24 25 26 29 32 28 25 25 23 24 26 28 23 20 24 24
6 9 10 16 16 11 11 12 29 47 57 54 53 52 62 54 48 45 38 38 36 33 44 45 38 34 33 29 26 26 26 35 31 28 25 23 24 25 26 21 20 20 17
5 6 9 11 13 13 12 25 24 22 26 32 43 53 54 53 53 56 48 40 43 33 44 45 41 39 40 38 35 30 30 31 36 32 26 24 24 23 24 18 17 16 13
13 11 11 10 10 12 19 27 31 31 29 32 36 39 42 38 43 51 54 53 40 43 46 35 30 33 45 46 40 35 31 30 37 35 30 27 25 23 22 17 14 13 8
19 20 21 20 18 15 14 16 20 26 35 38 39 39 45 48 49 44 40 44 49 49 44 34 37 50 50 46 52 43 37 30 36 38 35 30 27 24 23 20 14 12 11
21 21 23 24 24 23 19 16 16 17 23 32 36 36 38 41 47 43 41 42 44 45 42 39 39 56 57 55 57 52 45 37 39 42 41 35 30 26 24 25 17 12 12
23 21 22 24 25 25 22 17 13 16 23 24 33 34 35 34 36 37 41 43 38 35 36 43 44 52 47 40 43 56 54 45 41 42 45 40 35 30 27 29 26 18 14
27 25 21 24 26 26 26 25 22 19 18 22 28 30 24 27 29 29 31 32 34 35 37 38 44 40 47 46 42 44 50 46 44 44 46 45 41 36 34 32 32 23 16
24 25 21 22 25 26 28 27 27 24 21 22 23 27 28 31 29 29 32 32 35 37 31 37 33 38 38 33 47 46 44 46 45 47 51 52 50 42 38 40 38 32 23
25 25 23 21 21 25 27 27 28 26 24 21 20 20 24 32 42 40 42 41 39 40 39 33 32 32 40 32 34 30 37 32 46 48 54 59 57 53 49 50 49 42 32
25 26 28 26 25 21 25 24 25 26 26 24 21 17 15 13 13 20 27 31 33 36 38 38 32 33 37 32 30 32 28 31 29 49 53 57 62 61 53 54 52 46 40
33 31 29 34 36 33 29 29 30 29 31 32 31 27 25 23 20 17 15 16 19 23 32 36 39 36 35 37 38 41 40 33 34 29 41 53 55 64 61 59 56 55 49
35 36 35 33 31 32 40 40 41 38 38 37 37 36 36 34 33 29 30 31 32 30 29 29 32 30 31 29 32 35 43 46 44 41 51 44 42 59 55 64 62 61 58
36 36 35 35 33 32 28 30 40 47 48 47 46 43 42 42 40 37 39 39 36 33 40 42 42 41 39 42 44 46 47 47 59 58 51 61 50 54 49 61 67 66 69
39 37 37 37 36 38 35 35 36 36 40 44 49 54 53 47 46 44 45 45 44 40 41 44 43 43 47 48 52 53 52 53 58 58 60 68 54 51 49 69 70 73 76
Wind_Direction_850mb
217 212 207 203 199 198 205 216 221 235 297 316 328 308 343 18 35 10 337 358 357 12 15 23 39 37 234 234 244 253 274 277 286 299 312 318 322 324 321 313 308 304 306
225 224 221 219 218 220 220 229 243 250 260 283 295 304 295 351 49 63 29 357 7 20 12 24 35 27 356 244 244 253 264 277 314 331 342 344 343 344 341 335 331 322 321
233 235 232 228 229 234 239 242 248 257 258 272 293 295 268 282 329 341 352 339 347 349 7 23 22 19 32 54 119 126 103 26 10 13 10 3 360 355 348 336 334 326 327
241 243 240 235 233 239 241 245 254 266 261 256 284 280 258 274 284 289 294 318 327 325 345 15 34 39 55 84 100 100 87 47 17 12 9 8 7 358 343 336 332 325 324
239 243 241 234 230 234 240 241 250 258 258 246 269 276 271 272 289 283 281 271 283 307 319 344 36 60 64 76 91 91 67 1 356 345 354 357 360 354 341 332 328 327 324
236 237 243 251 241 233 238 244 245 246 252 246 253 273 278 284 292 289 280 263 267 276 278 293 316 35 55 62 82 75 31 349 338 334 340 348 352 349 340 330 328 328 328
230 231 248 265 261 249 242 244 244 244 253 246 257 270 274 287 295 290 276 264 265 278 280 274 264 241 261 283 320 337 340 354 338 338 337 337 343 344 338 331 330 330 326
241 244 243 253 257 263 256 250 255 254 249 254 254 263 275 291 290 340 318 328 263 261 273 269 262 256 252 262 270 275 289 308 328 334 338 335 340 341 337 329 327 326 326
244 259 261 252 244 289 275 261 251 252 249 253 258 253 275 274 282 295 284 307 53 296 273 269 263 258 262 266 267 271 273 278 295 315 325 329 331 339 334 327 326 327 327
256 260 274 270 232 271 285 279 257 242 246 245 247 254 264 268 273 285 285 266 288 293 266 283 263 256 260 266 266 269 270 271 278 292 305 316 321 329 328 323 324 329 331
253 252 261 254 258 191 225 266 269 246 244 248 250 252 259 265 262 259 277 281 289 274 276 276 278 263 258 266 269 267 263 264 266 273 287 300 309 322 323 318 323 330 334
250 248 249 245 241 236 224 236 213 220 229 250 240 251 262 248 258 248 262 274 275 271 278 273 270 272 261 263 269 269 262 253 256 260 272 287 300 313 317 310 318 327 333
231 280 297 270 268 249 259 250 224 233 241 240 251 257 257 251 249 256 256 264 263 278 283 280 268 263 266 272 274 279 275 246 246 250 260 276 289 304 304 300 313 326 327
33 335 310 301 304 287 265 253 238 233 247 254 253 254 258 252 251 256 256 257 261 268 284 275 280 257 260 270 274 274 274 259 238 244 249 262 276 291 290 286 302 321 327
17 353 334 317 319 318 292 278 265 253 251 252 254 260 263 264 259 258 254 252 252 262 266 276 269 267 256 264 268 272 270 267 242 241 244 253 266 279 277 267 290 306 302
345 342 338 336 337 327 321 309 275 260 250 249 258 256 256 258 260 258 256 259 259 257 259 266 271 288 283 270 262 262 265 257 245 241 242 246 258 272 265 250 261 285 289
327 328 329 331 332 330 324 314 303 284 273 264 258 258 261 257 256 259 251 253 255 251 255 271 277 294 290 277 254 258 261 252 250 244 240 241 248 262 252 243 242 256 259
325 323 320 322 325 331 336 327 305 287 274 278 274 269 257 248 255 262 259 250 255 257 256 281 283 283 282 277 256 251 253 250 250 248 239 234 240 252 241 245 238 235 238
320 310 312 307 309 316 322 330 331 314 303 283 274 280 269 250 248 251 255 254 251 254 262 268 282 283 282 270 262 255 243 250 251 251 235 229 236 244 244 240 243 237 240
312 313 308 298 293 303 313 322 326 325 318 308 296 281 275 268 261 254 247 248 253 255 257 266 270 278 279 275 267 259 250 245 252 252 233 228 235 240 242 238 234 232 233
311 303 302 292 290 290 295 304 315 321 322 315 306 303 287 270 260 259 255 253 253 255 257 261 265 270 277 269 273 264 255 241 246 248 234 231 235 237 239 234 231 228 227
318 293 293 296 286 285 285 286 290 300 304 306 310 305 303 313 287 257 258 256 247 251 259 255 262 263 265 267 271 269 263 245 240 246 235 236 239 242 244 239 237 227 228
329 331 324 295 283 281 283 283 280 281 286 291 293 301 304 299 295 291 282 275 268 266 255 258 266 267 273 277 275 269 265 258 252 248 248 235 238 243 247 246 235 227 226
320 319 320 315 312 292 277 278 280 279 277 279 286 290 291 292 292 294 288 281 276 274 273 274 266 263 255 264 274 264 260 265 261 247 249 241 241 251 247 251 239 229 225
308 311 312 313 309 304 302 294 283 280 278 276 278 280 281 282 283 279 278 279 281 282 280 275 272 271 271 269 273 270 264 262 267 257 251 249 243 246 247 251 248 232 229
299 304 305 303 303 306 307 306 303 304 297 289 280 277 275 273 276 275 277 276 276 277 280 279 279 276 273 268 264 267 269 265 258 269 250 257 247 241 241 249 248 240 230